sat.trackr.live / text

‹ back to catalog

RESOURCESAT-2

NORAD 37387 · 2011-015A

PAYLOAD ACTIVE UNKNOWN

§ Identity

Operator
Country
IND
Launch date
2011-04-20
Launch site
SRILR
Launch vehicle
Mass (kg)
RCS (m²)
5.59

Purposes: earth_obs

External: N2YO · Heavens-Above · Gunter

§ Orbital elements

Epoch: 2026-09-20T04:13:31.643616Z

Period
101.29 min
Inclination
98.7553°
Eccentricity
0.0010881
Mean motion
14.21610290 rev/d
Perigee alt
812.1 km
Apogee alt
827.7 km
Semi-major
7,198.0 km
B*
2.3902e-5
RAAN
329.9175°
Arg perigee
349.3128°
Mean anomaly
10.7817°
Rev number
79,967

§ Raw data

RESOURCESAT-21 37387U 11015A   26263.17606069  .00000008  00000+0  23902-4 0  99972 37387  98.7553 329.9175 0010881 349.3128  10.7817 14.21610290799679

JSON: /api/v1/satellites/37387 · /tle

For live sub-satellite position, see the globe view (requires WebGL).

§ Visibility from observer

Set your observer location to see the next 7 days of passes ≥ 10°. The values pass through the URL so the page stays shareable.

No JS? Fill the form by hand. The geolocation button needs JavaScript.

§ Radio — SatNOGS DB

ModeDescriptionDownlinkUplink
BPSK S-band telemetry 2.250 GHz

1 transmitter · refreshed weekly from db.satnogs.org